Year,Month,Day,Hour,Minute,Value (Times are PST for temperature in C)
2008,03,31,00,00,1.20
2008,03,31,00,01,1.20
2008,03,31,00,02,1.20
2008,03,31,00,03,1.10
2008,03,31,00,04,1.10
2008,03,31,00,05,1.00
2008,03,31,00,06,1.00
2008,03,31,00,07,0.90
2008,03,31,00,08,0.90
2008,03,31,00,09,0.90
2008,03,31,00,10,0.80
2008,03,31,00,11,0.80
2008,03,31,00,12,0.80
2008,03,31,00,13,0.80
2008,03,31,00,14,0.90
2008,03,31,00,15,0.90
2008,03,31,00,16,0.90
2008,03,31,00,17,0.80
2008,03,31,00,18,0.80
2008,03,31,00,19,0.80
2008,03,31,00,20,0.80
2008,03,31,00,21,0.80
2008,03,31,00,22,0.80
2008,03,31,00,23,0.90
2008,03,31,00,24,0.90
2008,03,31,00,25,1.00
2008,03,31,00,26,1.10
2008,03,31,00,27,1.10
2008,03,31,00,28,1.20
2008,03,31,00,29,1.20
2008,03,31,00,30,1.20
2008,03,31,00,31,1.20
2008,03,31,00,32,1.20
2008,03,31,00,33,1.10
2008,03,31,00,34,1.10
2008,03,31,00,35,1.10
2008,03,31,00,36,1.10
2008,03,31,00,37,1.10
2008,03,31,00,38,1.10
2008,03,31,00,39,1.20
2008,03,31,00,40,1.20
2008,03,31,00,41,1.30
2008,03,31,00,42,1.30
2008,03,31,00,43,1.40
2008,03,31,00,44,1.50
2008,03,31,00,45,1.60
2008,03,31,00,46,1.70
2008,03,31,00,47,1.70
2008,03,31,00,48,1.80
2008,03,31,00,49,1.80
2008,03,31,00,50,1.90
2008,03,31,00,51,2.00
2008,03,31,00,52,2.00
2008,03,31,00,53,2.00
2008,03,31,00,54,2.10
2008,03,31,00,55,2.10
2008,03,31,00,56,2.20
2008,03,31,00,57,2.40
2008,03,31,00,58,2.40
2008,03,31,00,59,2.40
2008,03,31,01,00,2.40
2008,03,31,01,01,2.40
2008,03,31,01,02,2.40
2008,03,31,01,03,2.40
2008,03,31,01,04,2.40
2008,03,31,01,05,2.40
2008,03,31,01,06,2.40
2008,03,31,01,07,2.40
2008,03,31,01,08,2.40
2008,03,31,01,09,2.40
2008,03,31,01,10,2.30
2008,03,31,01,11,2.30
2008,03,31,01,12,2.30
2008,03,31,01,13,2.30
2008,03,31,01,14,2.30
2008,03,31,01,15,2.30
2008,03,31,01,16,2.30
2008,03,31,01,17,2.30
2008,03,31,01,18,2.30
2008,03,31,01,19,2.30
2008,03,31,01,20,2.30
2008,03,31,01,21,2.30
2008,03,31,01,22,2.30
2008,03,31,01,23,2.30
2008,03,31,01,24,2.30
2008,03,31,01,25,2.20
2008,03,31,01,26,2.20
2008,03,31,01,27,2.20
2008,03,31,01,28,2.10
2008,03,31,01,29,2.10
2008,03,31,01,30,2.10
2008,03,31,01,31,2.00
2008,03,31,01,32,2.00
2008,03,31,01,33,2.00
2008,03,31,01,34,2.00
2008,03,31,01,35,2.00
2008,03,31,01,36,1.90
2008,03,31,01,37,1.90
2008,03,31,01,38,1.90
2008,03,31,01,39,1.90
2008,03,31,01,40,1.90
2008,03,31,01,41,1.90
2008,03,31,01,42,1.90
2008,03,31,01,43,1.80
2008,03,31,01,44,1.80
2008,03,31,01,45,1.80
2008,03,31,01,46,1.80
2008,03,31,01,47,1.80
2008,03,31,01,48,1.70
2008,03,31,01,49,1.60
2008,03,31,01,50,1.60
2008,03,31,01,51,1.50
2008,03,31,01,52,1.40
2008,03,31,01,53,1.40
2008,03,31,01,54,1.30
2008,03,31,01,55,1.30
2008,03,31,01,56,1.30
2008,03,31,01,57,1.30
2008,03,31,01,58,1.30
2008,03,31,01,59,1.30
2008,03,31,02,00,1.30
2008,03,31,02,01,1.30
2008,03,31,02,02,1.30
2008,03,31,02,03,1.30
2008,03,31,02,04,1.20
2008,03,31,02,05,1.20
2008,03,31,02,06,1.20
2008,03,31,02,07,1.20
2008,03,31,02,08,1.10
2008,03,31,02,09,1.10
2008,03,31,02,10,1.10
2008,03,31,02,11,1.10
2008,03,31,02,12,1.10
2008,03,31,02,13,1.10
2008,03,31,02,14,1.10
2008,03,31,02,15,1.10
2008,03,31,02,16,1.10
2008,03,31,02,17,1.10
2008,03,31,02,18,1.10
2008,03,31,02,19,1.10
2008,03,31,02,20,1.10
2008,03,31,02,21,1.10
2008,03,31,02,22,1.10
2008,03,31,02,23,1.10
2008,03,31,02,24,1.10
2008,03,31,02,25,1.00
2008,03,31,02,26,1.00
2008,03,31,02,27,0.90
2008,03,31,02,28,0.90
2008,03,31,02,29,0.80
2008,03,31,02,30,0.80
2008,03,31,02,31,0.80
2008,03,31,02,32,0.70
2008,03,31,02,33,0.70
2008,03,31,02,34,0.70
2008,03,31,02,35,0.60
2008,03,31,02,36,0.60
2008,03,31,02,37,0.50
2008,03,31,02,38,0.50
2008,03,31,02,39,0.40
2008,03,31,02,40,0.40
2008,03,31,02,41,0.40
2008,03,31,02,42,0.40
2008,03,31,02,43,0.40
2008,03,31,02,44,0.40
2008,03,31,02,45,0.40
2008,03,31,02,46,0.40
2008,03,31,02,47,0.30
2008,03,31,02,48,0.30
2008,03,31,02,49,0.30
2008,03,31,02,50,0.30
2008,03,31,02,51,0.30
2008,03,31,02,52,0.20
2008,03,31,02,53,0.20
2008,03,31,02,54,0.20
2008,03,31,02,55,0.20
2008,03,31,02,56,0.20
2008,03,31,02,57,0.10
2008,03,31,02,58,0.10
2008,03,31,02,59,0.10
2008,03,31,03,00,0.00
2008,03,31,03,01,0.00
2008,03,31,03,02,-0.10
2008,03,31,03,03,-0.10
2008,03,31,03,04,-0.10
2008,03,31,03,05,-0.10
2008,03,31,03,06,-0.10
2008,03,31,03,07,-0.10
2008,03,31,03,08,-0.10
2008,03,31,03,09,-0.10
2008,03,31,03,10,-0.10
2008,03,31,03,11,-0.10
2008,03,31,03,12,-0.10
2008,03,31,03,13,-0.20
2008,03,31,03,14,-0.20
2008,03,31,03,15,-0.20
2008,03,31,03,16,-0.20
2008,03,31,03,17,-0.30
2008,03,31,03,18,-0.30
2008,03,31,03,19,-0.30
2008,03,31,03,20,-0.30
2008,03,31,03,21,-0.30
2008,03,31,03,22,-0.30
2008,03,31,03,23,-0.30
2008,03,31,03,24,-0.30
2008,03,31,03,25,-0.30
2008,03,31,03,26,-0.30
2008,03,31,03,27,-0.30
2008,03,31,03,28,-0.30
2008,03,31,03,29,-0.40
2008,03,31,03,30,-0.40
2008,03,31,03,31,-0.40
2008,03,31,03,32,-0.50
2008,03,31,03,33,-0.50
2008,03,31,03,34,-0.50
2008,03,31,03,35,-0.50
2008,03,31,03,36,-0.50
2008,03,31,03,37,-0.50
2008,03,31,03,38,-0.50
2008,03,31,03,39,-0.40
2008,03,31,03,40,-0.40
2008,03,31,03,41,-0.40
2008,03,31,03,42,-0.40
2008,03,31,03,43,-0.40
2008,03,31,03,44,-0.40
2008,03,31,03,45,-0.40
2008,03,31,03,46,-0.40
2008,03,31,03,47,-0.50
2008,03,31,03,48,-0.50
2008,03,31,03,49,-0.50
2008,03,31,03,50,-0.50
2008,03,31,03,51,-0.60
2008,03,31,03,52,-0.60
2008,03,31,03,53,-0.60
2008,03,31,03,54,-0.60
2008,03,31,03,55,-0.60
2008,03,31,03,56,-0.60
2008,03,31,03,57,-0.60
2008,03,31,03,58,-0.60
2008,03,31,03,59,-0.60
2008,03,31,04,00,-0.60
2008,03,31,04,01,-0.50
2008,03,31,04,02,-0.50
2008,03,31,04,03,-0.50
2008,03,31,04,04,-0.50
2008,03,31,04,05,-0.50
2008,03,31,04,06,-0.50
2008,03,31,04,07,-0.50
2008,03,31,04,08,-0.40
2008,03,31,04,09,-0.50
2008,03,31,04,10,-0.50
2008,03,31,04,11,-0.50
2008,03,31,04,12,-0.50
2008,03,31,04,13,-0.60
2008,03,31,04,14,-0.60
2008,03,31,04,15,-0.60
2008,03,31,04,16,-0.60
2008,03,31,04,17,-0.70
2008,03,31,04,18,-0.70
2008,03,31,04,19,-0.70
2008,03,31,04,20,-0.70
2008,03,31,04,21,-0.70
2008,03,31,04,22,-0.70
2008,03,31,04,23,-0.70
2008,03,31,04,24,-0.70
2008,03,31,04,25,-0.70
2008,03,31,04,26,-0.70
2008,03,31,04,27,-0.70
2008,03,31,04,28,-0.70
2008,03,31,04,29,-0.70
2008,03,31,04,30,-0.70
2008,03,31,04,31,-0.80
2008,03,31,04,32,-0.80
2008,03,31,04,33,-0.80
2008,03,31,04,34,-0.80
2008,03,31,04,35,-0.80
2008,03,31,04,36,-0.80
2008,03,31,04,37,-0.80
2008,03,31,04,38,-0.80
2008,03,31,04,39,-0.80
2008,03,31,04,40,-0.80
2008,03,31,04,41,-0.80
2008,03,31,04,42,-0.80
2008,03,31,04,43,-0.80
2008,03,31,04,44,-0.80
2008,03,31,04,45,-0.70
2008,03,31,04,46,-0.70
2008,03,31,04,47,-0.70
2008,03,31,04,48,-0.70
2008,03,31,04,49,-0.70
2008,03,31,04,50,-0.70
2008,03,31,04,51,-0.80
2008,03,31,04,52,-0.80
2008,03,31,04,53,-0.80
2008,03,31,04,54,-0.80
2008,03,31,04,55,-0.80
2008,03,31,04,56,-0.80
2008,03,31,04,57,-0.80
2008,03,31,04,58,-0.80
2008,03,31,04,59,-0.70
2008,03,31,05,00,-0.70
2008,03,31,05,01,-0.70
2008,03,31,05,02,-0.70
2008,03,31,05,03,-0.70
2008,03,31,05,04,-0.70
2008,03,31,05,05,-0.70
2008,03,31,05,06,-0.70
2008,03,31,05,22,-0.80
2008,03,31,05,43,-1.00
2008,03,31,05,47,-0.90
2008,03,31,05,48,-0.90
2008,03,31,05,49,-0.90
2008,03,31,05,50,-0.90
2008,03,31,05,51,-0.90
2008,03,31,05,52,-1.00
2008,03,31,05,53,-1.10
2008,03,31,05,54,-1.10
2008,03,31,05,55,-1.10
2008,03,31,05,56,-1.20
2008,03,31,05,57,-1.20
2008,03,31,05,58,-1.20
2008,03,31,05,59,-1.30
2008,03,31,06,00,-1.30
2008,03,31,06,01,-1.30
2008,03,31,06,02,-1.30
2008,03,31,06,03,-1.30
2008,03,31,06,04,-1.30
2008,03,31,06,05,-1.30
2008,03,31,06,06,-1.30
2008,03,31,06,07,-1.30
2008,03,31,06,08,-1.30
2008,03,31,06,09,-1.30
2008,03,31,06,10,-1.20
2008,03,31,06,11,-1.20
2008,03,31,06,12,-1.20
2008,03,31,06,13,-1.20
2008,03,31,06,14,-1.20
2008,03,31,06,15,-1.10
2008,03,31,06,16,-1.10
2008,03,31,06,17,-1.10
2008,03,31,06,18,-1.10
2008,03,31,06,19,-1.10
2008,03,31,06,20,-1.20
2008,03,31,06,21,-1.20
2008,03,31,06,22,-1.20
2008,03,31,06,23,-1.20
2008,03,31,06,24,-1.20
2008,03,31,06,25,-1.20
2008,03,31,06,26,-1.20
2008,03,31,06,27,-1.20
2008,03,31,06,28,-1.20
2008,03,31,06,29,-1.20
2008,03,31,06,30,-1.20
2008,03,31,06,31,-1.20
2008,03,31,06,32,-1.20
2008,03,31,06,33,-1.20
2008,03,31,06,34,-1.20
2008,03,31,06,35,-1.20
2008,03,31,06,36,-1.20
2008,03,31,06,37,-1.30
2008,03,31,06,38,-1.30
2008,03,31,06,39,-1.30
2008,03,31,06,40,-1.30
2008,03,31,06,41,-1.30
2008,03,31,06,42,-1.20
2008,03,31,06,43,-1.20
2008,03,31,06,44,-1.20
2008,03,31,06,45,-1.20
2008,03,31,06,46,-1.20
2008,03,31,06,47,-1.20
2008,03,31,06,48,-1.20
2008,03,31,06,49,-1.20
2008,03,31,06,50,-1.20
2008,03,31,06,51,-1.20
2008,03,31,06,52,-1.20
2008,03,31,06,53,-1.20
2008,03,31,06,54,-1.20
2008,03,31,06,55,-1.20
2008,03,31,06,56,-1.20
2008,03,31,06,57,-1.20
2008,03,31,06,58,-1.20
2008,03,31,06,59,-1.20
2008,03,31,07,00,-1.20
2008,03,31,07,01,-1.20
2008,03,31,07,02,-1.10
2008,03,31,07,03,-1.10
2008,03,31,07,04,-1.10
2008,03,31,07,05,-1.10
2008,03,31,07,06,-1.10
2008,03,31,07,07,-1.00
2008,03,31,07,08,-1.00
2008,03,31,07,09,-1.00
2008,03,31,07,10,-1.00
2008,03,31,07,11,-0.90
2008,03,31,07,12,-0.90
2008,03,31,07,13,-0.90
2008,03,31,07,14,-0.90
2008,03,31,07,15,-0.90
2008,03,31,07,16,-0.90
2008,03,31,07,17,-0.90
2008,03,31,07,18,-0.90
2008,03,31,07,19,-0.90
2008,03,31,07,20,-0.90
2008,03,31,07,21,-0.90
2008,03,31,07,22,-0.90
2008,03,31,07,23,-0.80
2008,03,31,07,24,-0.80
2008,03,31,07,25,-0.80
2008,03,31,07,26,-0.80
2008,03,31,07,27,-0.80
2008,03,31,07,28,-0.80
2008,03,31,07,29,-0.80
2008,03,31,07,30,-0.80
2008,03,31,07,31,-0.80
2008,03,31,07,32,-0.70
2008,03,31,07,33,-0.70
2008,03,31,07,34,-0.70
2008,03,31,07,35,-0.60
2008,03,31,07,36,-0.50
2008,03,31,07,37,-0.40
2008,03,31,07,38,-0.30
2008,03,31,07,39,-0.20
2008,03,31,07,40,-0.10
2008,03,31,07,41,0.00
2008,03,31,07,42,0.10
2008,03,31,07,43,0.10
2008,03,31,07,44,0.20
2008,03,31,07,45,0.20
2008,03,31,07,46,0.20
2008,03,31,07,47,0.30
2008,03,31,07,48,0.30
2008,03,31,07,49,0.30
2008,03,31,07,50,0.30
2008,03,31,07,51,0.30
2008,03,31,07,52,0.30
2008,03,31,07,53,0.30
2008,03,31,07,54,0.40
2008,03,31,07,55,0.40
2008,03,31,07,56,0.40
2008,03,31,07,57,0.50
2008,03,31,07,58,0.50
2008,03,31,07,59,0.50
2008,03,31,08,00,0.50
2008,03,31,08,01,0.60
2008,03,31,08,02,0.60
2008,03,31,08,03,0.60
2008,03,31,08,04,0.60
2008,03,31,08,05,0.60
2008,03,31,08,06,0.60
2008,03,31,08,07,0.60
2008,03,31,08,08,0.60
2008,03,31,08,09,0.60
2008,03,31,08,10,0.70
2008,03,31,08,11,0.70
2008,03,31,08,12,0.70
2008,03,31,08,13,0.80
2008,03,31,08,14,0.90
2008,03,31,08,15,1.00
2008,03,31,08,16,1.20
2008,03,31,08,17,1.30
2008,03,31,08,18,1.40
2008,03,31,08,19,1.50
2008,03,31,08,20,1.70
2008,03,31,08,21,1.80
2008,03,31,08,22,1.90
2008,03,31,08,23,2.00
2008,03,31,08,24,2.10
2008,03,31,08,25,2.20
2008,03,31,08,26,2.20
2008,03,31,08,27,2.20
2008,03,31,08,28,2.20
2008,03,31,08,29,2.20
2008,03,31,08,30,2.20
2008,03,31,08,31,2.20
2008,03,31,08,32,2.20
2008,03,31,08,33,2.20
2008,03,31,08,34,2.20
2008,03,31,08,35,2.20
2008,03,31,08,36,2.20
2008,03,31,08,37,2.20
2008,03,31,08,38,2.20
2008,03,31,08,39,2.20
2008,03,31,08,40,2.10
2008,03,31,08,41,2.10
2008,03,31,08,42,2.10
2008,03,31,08,43,2.10
2008,03,31,08,44,2.10
2008,03,31,08,45,2.10
2008,03,31,08,46,2.10
2008,03,31,08,47,2.20
2008,03,31,08,48,2.20
2008,03,31,08,49,2.30
2008,03,31,08,50,2.30
2008,03,31,08,51,2.40
2008,03,31,08,52,2.50
2008,03,31,08,53,2.60
2008,03,31,08,54,2.70
2008,03,31,08,55,2.80
2008,03,31,08,56,2.80
2008,03,31,08,57,2.90
2008,03,31,08,58,3.00
2008,03,31,08,59,3.10
2008,03,31,09,00,3.10
2008,03,31,09,01,3.20
2008,03,31,09,02,3.20
2008,03,31,09,03,3.20
2008,03,31,09,04,3.30
2008,03,31,09,05,3.30
2008,03,31,09,06,3.40
2008,03,31,09,07,3.40
2008,03,31,09,08,3.50
2008,03,31,09,09,3.50
2008,03,31,09,10,3.60
2008,03,31,09,11,3.60
2008,03,31,09,12,3.70
2008,03,31,09,13,3.70
2008,03,31,09,14,3.70
2008,03,31,09,15,3.80
2008,03,31,09,16,3.80
2008,03,31,09,17,3.80
2008,03,31,09,18,3.80
2008,03,31,09,19,3.80
2008,03,31,09,20,3.80
2008,03,31,09,21,3.80
2008,03,31,09,22,3.80
2008,03,31,09,23,3.80
2008,03,31,09,24,3.80
2008,03,31,09,25,3.90
2008,03,31,09,26,3.90
2008,03,31,09,27,3.90
2008,03,31,09,28,3.90
2008,03,31,09,29,4.00
2008,03,31,09,30,4.00
2008,03,31,09,31,4.00
2008,03,31,09,32,4.10
2008,03,31,09,33,4.10
2008,03,31,09,34,4.20
2008,03,31,09,35,4.20
2008,03,31,09,36,4.30
2008,03,31,09,37,4.30
2008,03,31,09,38,4.30
2008,03,31,09,39,4.30
2008,03,31,09,40,4.30
2008,03,31,09,41,4.40
2008,03,31,09,42,4.40
2008,03,31,09,43,4.40
2008,03,31,09,44,4.40
2008,03,31,09,45,4.40
2008,03,31,09,46,4.40
2008,03,31,09,47,4.40
2008,03,31,09,48,4.40
2008,03,31,09,49,4.40
2008,03,31,09,50,4.40
2008,03,31,09,51,4.50
2008,03,31,09,52,4.50
2008,03,31,09,53,4.50
2008,03,31,09,54,4.50
2008,03,31,09,55,4.60
2008,03,31,09,56,4.60
2008,03,31,09,57,4.60
2008,03,31,09,58,4.60
2008,03,31,09,59,4.70
2008,03,31,10,00,4.70
2008,03,31,10,01,4.80
2008,03,31,10,02,4.80
2008,03,31,10,03,4.80
2008,03,31,10,04,4.80
2008,03,31,10,05,4.90
2008,03,31,10,06,4.90
2008,03,31,10,07,4.90
2008,03,31,10,08,4.90
2008,03,31,10,09,5.00
2008,03,31,10,10,5.00
2008,03,31,10,11,5.10
2008,03,31,10,12,5.10
2008,03,31,10,13,5.10
2008,03,31,10,14,5.10
2008,03,31,10,15,5.10
2008,03,31,10,16,5.20
2008,03,31,10,17,5.20
2008,03,31,10,18,5.30
2008,03,31,10,19,5.30
2008,03,31,10,20,5.30
2008,03,31,10,21,5.30
2008,03,31,10,22,5.40
2008,03,31,10,23,5.40
2008,03,31,10,24,5.40
2008,03,31,10,25,5.40
2008,03,31,10,26,5.40
2008,03,31,10,27,5.40
2008,03,31,10,28,5.40
2008,03,31,10,29,5.40
2008,03,31,10,30,5.40
2008,03,31,10,31,5.50
2008,03,31,10,32,5.50
2008,03,31,10,33,5.50
2008,03,31,10,34,5.60
2008,03,31,10,35,5.60
2008,03,31,10,36,5.60
2008,03,31,10,37,5.60
2008,03,31,10,38,5.60
2008,03,31,10,39,5.60
2008,03,31,10,40,5.60
2008,03,31,10,41,5.60
2008,03,31,10,42,5.70
2008,03,31,10,43,5.70
2008,03,31,10,44,5.70
2008,03,31,10,45,5.80
2008,03,31,10,46,5.80
2008,03,31,10,47,5.80
2008,03,31,10,48,5.80
2008,03,31,10,49,5.80
2008,03,31,10,50,5.80
2008,03,31,10,51,5.80
2008,03,31,10,52,5.80
2008,03,31,10,53,5.80
2008,03,31,10,54,5.80
2008,03,31,10,55,5.80
2008,03,31,10,56,5.80
2008,03,31,10,57,5.80
2008,03,31,10,58,5.80
2008,03,31,10,59,5.80
2008,03,31,11,00,5.80
2008,03,31,11,01,5.90
2008,03,31,11,02,5.90
2008,03,31,11,03,6.00
2008,03,31,11,04,6.00
2008,03,31,11,05,6.10
2008,03,31,11,06,6.20
2008,03,31,11,07,6.30
2008,03,31,11,08,6.40
2008,03,31,11,09,6.50
2008,03,31,11,10,6.60
2008,03,31,11,11,6.70
2008,03,31,11,12,6.80
2008,03,31,11,13,6.80
2008,03,31,11,14,6.80
2008,03,31,11,15,6.80
2008,03,31,11,16,6.90
2008,03,31,11,17,7.00
2008,03,31,11,18,7.00
2008,03,31,11,19,7.10
2008,03,31,11,20,7.10
2008,03,31,11,21,7.10
2008,03,31,11,22,7.10
2008,03,31,11,23,7.00
2008,03,31,11,24,7.00
2008,03,31,11,25,7.10
2008,03,31,11,26,7.10
2008,03,31,11,27,7.10
2008,03,31,11,28,7.10
2008,03,31,11,29,7.10
2008,03,31,11,30,7.10
2008,03,31,11,31,7.10
2008,03,31,11,32,7.10
2008,03,31,11,33,7.10
2008,03,31,11,34,7.10
2008,03,31,11,35,7.10
2008,03,31,11,36,7.10
2008,03,31,11,37,7.10
2008,03,31,11,38,7.00
2008,03,31,11,39,7.00
2008,03,31,11,40,7.00
2008,03,31,11,41,7.00
2008,03,31,11,42,6.90
2008,03,31,11,43,6.80
2008,03,31,11,44,6.80
2008,03,31,11,45,6.70
2008,03,31,11,46,6.60
2008,03,31,11,47,6.50
2008,03,31,11,48,6.40
2008,03,31,11,49,6.40
2008,03,31,11,50,6.40
2008,03,31,11,51,6.30
2008,03,31,11,52,6.30
2008,03,31,11,53,6.30
2008,03,31,11,54,6.20
2008,03,31,11,55,6.20
2008,03,31,11,56,6.20
2008,03,31,11,57,6.30
2008,03,31,11,58,6.30
2008,03,31,11,59,6.30
2008,03,31,12,00,6.20
2008,03,31,12,01,6.20
2008,03,31,12,02,6.30
2008,03,31,12,03,6.30
2008,03,31,12,04,6.30
2008,03,31,12,05,6.20
2008,03,31,12,06,6.20
2008,03,31,12,07,6.20
2008,03,31,12,08,6.20
2008,03,31,12,09,6.30
2008,03,31,12,10,6.30
2008,03,31,12,11,6.40
2008,03,31,12,12,6.40
2008,03,31,12,13,6.40
2008,03,31,12,14,6.50
2008,03,31,12,15,6.50
2008,03,31,12,16,6.40
2008,03,31,12,17,6.40
2008,03,31,12,18,6.40
2008,03,31,12,19,6.40
2008,03,31,12,20,6.30
2008,03,31,12,21,6.30
2008,03,31,12,22,6.30
2008,03,31,12,23,6.30
2008,03,31,12,24,6.20
2008,03,31,12,25,6.20
2008,03,31,12,26,6.10
2008,03,31,12,27,6.10
2008,03,31,12,28,6.10
2008,03,31,12,29,6.00
2008,03,31,12,30,6.00
2008,03,31,12,31,6.00
2008,03,31,12,32,6.00
2008,03,31,12,33,5.90
2008,03,31,12,34,5.90
2008,03,31,12,35,5.90
2008,03,31,12,36,5.90
2008,03,31,12,37,5.90
2008,03,31,12,38,5.90
2008,03,31,12,39,5.90
2008,03,31,12,40,5.90
2008,03,31,12,41,5.90
2008,03,31,12,42,5.80
2008,03,31,12,43,5.80
2008,03,31,12,44,5.50
2008,03,31,12,45,5.40
2008,03,31,12,46,5.20
2008,03,31,12,47,5.20
2008,03,31,12,48,5.10
2008,03,31,12,49,5.00
2008,03,31,12,50,5.00
2008,03,31,12,51,4.90
2008,03,31,12,52,4.80
2008,03,31,12,53,4.80
2008,03,31,12,54,4.80
2008,03,31,12,55,4.70
2008,03,31,12,56,4.70
2008,03,31,12,57,4.80
2008,03,31,12,58,4.80
2008,03,31,12,59,4.80
2008,03,31,13,00,4.70
2008,03,31,13,01,4.70
2008,03,31,13,02,4.70
2008,03,31,13,03,4.70
2008,03,31,13,04,4.70
2008,03,31,13,05,4.70
2008,03,31,13,06,4.60
2008,03,31,13,07,4.50
2008,03,31,13,08,4.50
2008,03,31,13,09,4.40
2008,03,31,13,10,4.30
2008,03,31,13,11,4.30
2008,03,31,13,12,4.30
2008,03,31,13,13,4.30
2008,03,31,13,14,4.20
2008,03,31,13,15,4.20
2008,03,31,13,16,4.20
2008,03,31,13,17,4.20
2008,03,31,13,18,4.20
2008,03,31,13,19,4.20
2008,03,31,13,20,4.20
2008,03,31,13,21,4.20
2008,03,31,13,22,4.20
2008,03,31,13,23,4.20
2008,03,31,13,24,4.20
2008,03,31,13,25,4.20
2008,03,31,13,26,4.30
2008,03,31,13,27,4.30
2008,03,31,13,28,4.40
2008,03,31,13,29,4.40
2008,03,31,13,30,4.50
2008,03,31,13,31,4.50
2008,03,31,13,32,4.60
2008,03,31,13,33,4.60
2008,03,31,13,34,4.70
2008,03,31,13,35,4.70
2008,03,31,13,36,4.70
2008,03,31,13,37,4.70
2008,03,31,13,38,4.80
2008,03,31,13,39,4.90
2008,03,31,13,40,4.90
2008,03,31,13,41,5.00
2008,03,31,13,42,5.00
2008,03,31,13,43,5.00
2008,03,31,13,44,5.10
2008,03,31,13,45,5.10
2008,03,31,13,46,5.10
2008,03,31,13,47,5.10
2008,03,31,13,48,5.20
2008,03,31,13,49,5.20
2008,03,31,13,50,5.20
2008,03,31,13,51,5.20
2008,03,31,13,52,5.20
2008,03,31,13,53,5.20
2008,03,31,13,54,5.20
2008,03,31,13,55,5.20
2008,03,31,13,56,5.20
2008,03,31,13,57,5.20
2008,03,31,13,58,5.20
2008,03,31,13,59,5.30
2008,03,31,14,00,5.30
2008,03,31,14,01,5.40
2008,03,31,14,02,5.50
2008,03,31,14,03,5.50
2008,03,31,14,04,5.60
2008,03,31,14,05,5.70
2008,03,31,14,06,5.70
2008,03,31,14,07,5.70
2008,03,31,14,08,5.60
2008,03,31,14,09,5.60
2008,03,31,14,10,5.60
2008,03,31,14,11,5.60
2008,03,31,14,12,5.60
2008,03,31,14,13,5.60
2008,03,31,14,14,5.50
2008,03,31,14,15,5.50
2008,03,31,14,16,5.50
2008,03,31,14,17,5.40
2008,03,31,14,18,5.30
2008,03,31,14,19,5.30
2008,03,31,14,20,5.30
2008,03,31,14,21,5.30
2008,03,31,14,22,5.20
2008,03,31,14,23,5.20
2008,03,31,14,24,5.10
2008,03,31,14,25,5.10
2008,03,31,14,26,5.20
2008,03,31,14,27,5.30
2008,03,31,14,28,5.30
2008,03,31,14,29,5.40
2008,03,31,14,30,5.50
2008,03,31,14,31,5.60
2008,03,31,14,32,5.60
2008,03,31,14,33,5.50
2008,03,31,14,34,5.50
2008,03,31,14,35,5.40
2008,03,31,14,36,5.40
2008,03,31,14,37,5.40
2008,03,31,14,38,5.40
2008,03,31,14,39,5.40
2008,03,31,14,40,5.40
2008,03,31,14,41,5.40
2008,03,31,14,42,5.40
2008,03,31,14,43,5.40
2008,03,31,14,44,5.40
2008,03,31,14,45,5.40
2008,03,31,14,46,5.40
2008,03,31,14,47,5.30
2008,03,31,14,48,5.30
2008,03,31,14,49,5.30
2008,03,31,14,50,5.30
2008,03,31,14,51,5.30
2008,03,31,14,52,5.30
2008,03,31,14,53,5.30
2008,03,31,14,54,5.30
2008,03,31,14,55,5.30
2008,03,31,14,56,5.20
2008,03,31,14,57,5.20
2008,03,31,14,58,5.20
2008,03,31,14,59,5.20
2008,03,31,15,00,5.20
2008,03,31,15,01,5.10
2008,03,31,15,02,5.10
2008,03,31,15,03,5.20
2008,03,31,15,04,5.20
2008,03,31,15,05,5.10
2008,03,31,15,06,5.10
2008,03,31,15,07,5.10
2008,03,31,15,08,5.20
2008,03,31,15,09,5.20
2008,03,31,15,10,5.20
2008,03,31,15,11,5.20
2008,03,31,15,12,5.20
2008,03,31,15,13,5.30
2008,03,31,15,14,5.30
2008,03,31,15,15,5.30
2008,03,31,15,16,5.30
2008,03,31,15,17,5.30
2008,03,31,15,18,5.20
2008,03,31,15,19,5.20
2008,03,31,15,20,5.10
2008,03,31,15,21,5.10
2008,03,31,15,22,5.00
2008,03,31,15,23,5.00
2008,03,31,15,24,4.90
2008,03,31,15,25,4.90
2008,03,31,15,26,4.80
2008,03,31,15,27,4.80
2008,03,31,15,28,4.70
2008,03,31,15,29,4.70
2008,03,31,15,30,4.70
2008,03,31,15,31,4.70
2008,03,31,15,32,4.60
2008,03,31,15,33,4.50
2008,03,31,15,34,4.50
2008,03,31,15,35,4.50
2008,03,31,15,36,4.40
2008,03,31,15,37,4.40
2008,03,31,15,38,4.40
2008,03,31,15,39,4.40
2008,03,31,15,40,4.50
2008,03,31,15,41,4.40
2008,03,31,15,42,4.40
2008,03,31,15,43,4.40
2008,03,31,15,44,4.40
2008,03,31,15,45,4.40
2008,03,31,15,46,4.40
2008,03,31,15,47,4.40
2008,03,31,15,48,4.40
2008,03,31,15,49,4.40
2008,03,31,15,50,4.40
2008,03,31,15,51,4.40
2008,03,31,15,52,4.40
2008,03,31,15,53,4.40
2008,03,31,15,54,4.40
2008,03,31,15,55,4.40
2008,03,31,15,56,4.40
2008,03,31,15,57,4.40
2008,03,31,15,58,4.50
2008,03,31,15,59,4.50
2008,03,31,16,00,4.50
2008,03,31,16,01,4.50
2008,03,31,16,02,4.50
2008,03,31,16,03,4.50
2008,03,31,16,04,4.50
2008,03,31,16,05,4.60
2008,03,31,16,06,4.60
2008,03,31,16,07,4.70
2008,03,31,16,08,4.80
2008,03,31,16,09,4.90
2008,03,31,16,10,5.00
2008,03,31,16,11,5.10
2008,03,31,16,12,5.10
2008,03,31,16,13,5.20
2008,03,31,16,14,5.20
2008,03,31,16,15,5.30
2008,03,31,16,16,5.30
2008,03,31,16,17,5.40
2008,03,31,16,18,5.40
2008,03,31,16,19,5.30
2008,03,31,16,20,5.30
2008,03,31,16,21,5.40
2008,03,31,16,22,5.40
2008,03,31,16,23,5.40
2008,03,31,16,24,5.40
2008,03,31,16,25,5.50
2008,03,31,16,26,5.50
2008,03,31,16,27,5.50
2008,03,31,16,28,5.50
2008,03,31,16,29,5.50
2008,03,31,16,30,5.50
2008,03,31,16,31,5.50
2008,03,31,16,32,5.50
2008,03,31,16,33,5.50
2008,03,31,16,34,5.50
2008,03,31,16,35,5.50
2008,03,31,16,36,5.40
2008,03,31,16,37,5.40
2008,03,31,16,38,5.40
2008,03,31,16,39,5.40
2008,03,31,16,40,5.50
2008,03,31,16,41,5.50
2008,03,31,16,42,5.60
2008,03,31,16,43,5.70
2008,03,31,16,44,5.70
2008,03,31,16,45,5.70
2008,03,31,16,46,5.70
2008,03,31,16,47,5.70
2008,03,31,16,48,5.70
2008,03,31,16,49,5.70
2008,03,31,16,50,5.80
2008,03,31,16,51,5.80
2008,03,31,16,52,5.80
2008,03,31,16,53,5.80
2008,03,31,16,54,5.80
2008,03,31,16,55,5.90
2008,03,31,16,56,5.90
2008,03,31,16,57,6.00
2008,03,31,16,58,6.00
2008,03,31,16,59,6.10
2008,03,31,17,00,6.10
2008,03,31,17,01,6.10
2008,03,31,17,02,6.10
2008,03,31,17,03,6.10
2008,03,31,17,04,6.30
2008,03,31,17,05,6.40
2008,03,31,17,06,6.50
2008,03,31,17,07,6.60
2008,03,31,17,08,6.60
2008,03,31,17,09,6.60
2008,03,31,17,10,6.60
2008,03,31,17,11,6.60
2008,03,31,17,12,6.60
2008,03,31,17,13,6.60
2008,03,31,17,14,6.60
2008,03,31,17,15,6.50
2008,03,31,17,16,6.40
2008,03,31,17,17,6.40
2008,03,31,17,18,6.30
2008,03,31,17,19,6.40
2008,03,31,17,20,6.40
2008,03,31,17,21,6.40
2008,03,31,17,22,6.40
2008,03,31,17,23,6.40
2008,03,31,17,24,6.30
2008,03,31,17,25,6.30
2008,03,31,17,26,6.20
2008,03,31,17,27,6.30
2008,03,31,17,28,6.30
2008,03,31,17,29,6.30
2008,03,31,17,30,6.30
2008,03,31,17,31,6.30
2008,03,31,17,32,6.40
2008,03,31,17,33,6.30
2008,03,31,17,34,6.30
2008,03,31,17,35,6.30
2008,03,31,17,36,6.30
2008,03,31,17,37,6.40
2008,03,31,17,38,6.40
2008,03,31,17,39,6.40
2008,03,31,17,40,6.40
2008,03,31,17,41,6.40
2008,03,31,17,42,6.30
2008,03,31,17,43,6.30
2008,03,31,17,44,6.20
2008,03,31,17,45,6.20
2008,03,31,17,46,6.20
2008,03,31,17,47,6.20
2008,03,31,17,48,6.20
2008,03,31,17,49,6.20
2008,03,31,17,50,6.20
2008,03,31,17,51,6.20
2008,03,31,17,52,6.20
2008,03,31,17,53,6.20
2008,03,31,17,54,6.20
2008,03,31,17,55,6.30
2008,03,31,17,56,6.30
2008,03,31,17,57,6.30
2008,03,31,17,58,6.30
2008,03,31,17,59,6.20
2008,03,31,18,00,6.20
2008,03,31,18,01,6.20
2008,03,31,18,02,6.10
2008,03,31,18,03,6.10
2008,03,31,18,04,6.10
2008,03,31,18,05,6.10
2008,03,31,18,06,6.10
2008,03,31,18,07,6.10
2008,03,31,18,08,6.10
2008,03,31,18,09,6.10
2008,03,31,18,10,6.20
2008,03,31,18,11,6.20
2008,03,31,18,12,6.20
2008,03,31,18,13,6.10
2008,03,31,18,14,6.10
2008,03,31,18,15,6.10
2008,03,31,18,16,6.10
2008,03,31,18,17,6.10
2008,03,31,18,18,6.10
2008,03,31,18,19,6.10
2008,03,31,18,20,6.10
2008,03,31,18,21,6.10
2008,03,31,18,22,6.20
2008,03,31,18,23,6.20
2008,03,31,18,24,6.20
2008,03,31,18,25,6.20
2008,03,31,18,26,6.20
2008,03,31,18,27,6.20
2008,03,31,18,28,6.20
2008,03,31,18,29,6.20
2008,03,31,18,30,6.20
2008,03,31,18,31,6.20
2008,03,31,18,32,6.20
2008,03,31,18,33,6.20